Regional Weather Roundup
Issued by NWS Sterling, VA

Home | Current Version | Previous Version | Text Only | Print | Product List | Glossary Off
Versions: 1 2 3 4 5 6 7 8 9 10 11 12 13 14 15 16 17 18 19 20 21 22 23 24 25 26 27 28 29 30 31 32 33 34 35 36 37 38 39 40 41 42 43 44 45 46 47 48 49 50

000
ASUS41 KLWX 281110
RWRLWX

REGIONAL WEATHER ROUNDUP
NATIONAL WEATHER SERVICE BALTIMORE MD/WASHINGTON DC
700 AM EDT TUE JUL 28 2015

Note: "FAIR" indicates few or no clouds below 12,000 feet
with no significant weather and/or obstructions to visibility.
 TC=TEMPERATURE CELSIUS

 * =Non NWS site. Station does not report precipitation (e.g. rain,
    snow, etc.), thunder, or fog.

DCZ001-MDZ009-015-VAZ040>042-051-053>054-281200-
WASHINGTON METRO

CITY           SKY/WX    TMP DP  RH WIND       PRES   REMARKS
WASHINGTON NAT PTCLDY    78  72  81 CALM      30.01R
DULLES         CLEAR     71  69  93 CALM      30.02R
ANDREWS AFB    CLEAR     70  69  97 CALM      30.01R
FT BELVOIR     CLEAR     69  68  96 CALM      30.01R
QUANTICO       CLEAR     73  69  87 CALM      30.01R
COLLEGE PARK*  CLEAR     72  72 100 CALM      30.00S
LEESBURG*      CLEAR     72  72 100 N7        30.03R FOG
MANASSAS*      CLEAR     72  72 100 CALM      30.00S
GAITHERSBURG*  CLEAR     70  66  88 CALM      30.06R

$$

MDZ006>007-011-014-281200-
BALTIMORE METRO

CITY           SKY/WX    TMP DP  RH WIND       PRES   REMARKS
BWI AIRPORT    MOCLDY    73  72  96 CALM      30.01R FOG
MD SCIENCE CTR   N/A     77  73  87 MISG      30.01R
MARTIN STATE   PTCLDY    73  73 100 CALM      30.02R FOG
ANNAPOLIS      CLEAR     76  71  85 CALM      30.00R
FORT MEADE*    MOCLDY    68  66  94 CALM      30.03R VSB 3/4

$$

MDZ012-015-019>023-281200-
MARYLAND EASTERN SHORE

CITY           SKY/WX    TMP DP  RH WIND       PRES   REMARKS
OCEAN CITY     PTSUNNY   74  72  93 CALM      30.01R
SALISBURY      SUNNY     70  69  97 CALM      30.01R FOG
BAY BRIDGE AP*   N/A     73  72  94 CALM      30.01R
CAMBRIDGE*     CLEAR     72  68  88 CALM      30.01R
EASTON*        CLEAR     73  73 100 CALM      30.05R

$$

MDZ017>025-281200-
SOUTHERN MARYLAND

CITY           SKY/WX    TMP DP  RH WIND       PRES   REMARKS
PATUXENT RIVER PTCLDY    73  71  93 CALM      30.01R
ST INIGOES     CLEAR     76  71  85 S3        30.00R
LEONARDTOWN*   CLEAR     70  68  94 CALM      30.02R

$$

MDZ003>005-281200-
NORTH CENTRAL MARYLAND

CITY           SKY/WX    TMP DP  RH WIND       PRES   REMARKS
FREDERICK*     NOT AVBL
HAGERSTOWN APT PTCLDY    71  69  93 CALM      30.04R FOG
WESTMINSTER*   MOCLDY    70  68  94 CALM      30.04R FOG

$$

MDZ501>502-281200-
WESTERN MARYLAND

CITY           SKY/WX    TMP DP  RH WIND       PRES   REMARKS
OAKLAND*       FOG       64 N/A N/A SE9       30.12S VSB<1/4
CUMBERLAND*    CLOUDY    70  70 100 CALM      30.08R

$$

VAZ025>031-281200-
SHENANDOAH VALLEY

CITY           SKY/WX    TMP DP  RH WIND       PRES   REMARKS
WINCHESTER*    FOG       72  72 100 CALM      30.03S VSB 1/2
FRONT ROYAL*   CLOUDY    66  66 100 CALM      30.03R VSB 3/4
LURAY*         FOG       70  70 100 CALM      30.05R VSB<1/4
NEW MARKET*    CLOUDY    68  68 100 CALM      30.04R VSB<1/4
STAUNTON*      FOG       70  68  95 CALM      30.07S VSB<1/4
WAYNESBORO*    CLOUDY    68  68 100 MISG      30.07R VSB 1/4

$$

WVZ021-048>050-054>055-281200-
EASTERN WEST VIRGINIA PANHANDLE

CITY           SKY/WX    TMP DP  RH WIND       PRES   REMARKS
MARTINSBURG    CLEAR     70  68  93 CALM      30.04R FOG
PETERSBURG*    FOG      N/A N/A N/A CALM      30.06R VSB<1/4

$$

VAZ036>039-050-281200-
CENTRAL FOOTHILLS

CITY           SKY/WX    TMP DP  RH WIND       PRES   REMARKS
CHARLOTTESVILL FOG       71  69  93 CALM      30.02R VSB 1/8
CULPEPER*      FOG       69  69 100 CALM      30.03R VSB<1/4
ORANGE*        CLEAR     70  70 100 CALM      30.03R
GORDONSVILLE*  FAIR      68  66  94 CALM      30.01S FOG
WARRENTON*     CLOUDY    71  71  99 CALM      30.01R FOG

$$

VAZ055>057-281200-
NORTH AND CENTRAL PIEDMONT

CITY           SKY/WX    TMP DP  RH WIND       PRES   REMARKS
FREDERICKSBRG* CLEAR     71  71 100 CALM      30.01R
STAFFORD*      CLEAR     66  65  96 CALM      30.05R

$$

NCZ024-NYZ072-PAZ021-071-VAZ022-071-281200-
OTHER REGIONAL OBSERVATIONS

CITY           SKY/WX    TMP DP  RH WIND       PRES   REMARKS
NEW YORK CITY  SUNNY     76  69  79 CALM      30.04R
PHILADELPHIA   PTSUNNY   76  72  87 W5        30.02R
PITTSBURGH     CLEAR     70  66  87 CALM      30.04R
ROANOKE        CLOUDY    73  69  87 E3        30.06R
RICHMOND       PTCLDY    73  71  93 S3        30.01R
RALEIGH        PTCLDY    74  71  91 CALM      30.02R

$$

ANZ530>537-281200-
MARINE OBSERVATIONS

STATION/POSITION TIME  TEMP    WIND        PRES
                       AIR SEA DIR/SP/G
                 (UTC) (F)     (DEG/KT/KT) (MB)
THOMAS PT LIGHT  1100   77     260/  3     1016.5
BALT KEY BRIDGE  1000   76      20/  2/  3 1015.6S
COVE POINT       1000   75     220/  2/  3 1016.3F
LEWISETTA        1000   75 82  240/  2/  3 1015.3R
SOLOMONS ISLAND  1000      82                N/A

$$




USA.gov is the U.S. government's official web portal to all federal, state and local government web resources and services.